Time,TemperatureF,DewpointF,PressureIn,WindDirection,WindDirectionDegrees,WindSpeedMPH,WindSpeedGustMPH,Humidity,HourlyPrecipIn,Conditions,Clouds,dailyrainin,SolarRadiationWatts/m^2,SoftwareType,DateUTC
2013-03-31 08:57:00,50.4,37.9,29.86,West,263,13.0,22.0,62,0.00,,FEW120,0.00,200.00,VWS V14.01,2013-03-31 15:57:00,
2013-03-31 09:02:00,50.3,38.6,29.86,West,264,20.0,22.0,64,0.00,,-RA,0.00,178.00,VWS V14.01,2013-03-31 16:02:00,
2013-03-31 09:07:00,50.8,39.5,29.86,WSW,250,9.0,18.0,65,0.00,,-RA,0.00,204.00,VWS V14.01,2013-03-31 16:07:00,
2013-03-31 09:12:00,50.6,39.3,29.86,WNW,289,10.0,17.0,65,0.00,,-RA,0.00,192.00,VWS V14.01,2013-03-31 16:12:00,
2013-03-31 09:17:00,50.8,39.1,29.86,WSW,252,6.0,15.0,64,0.00,,-RA,0.00,206.00,VWS V14.01,2013-03-31 16:17:00,
2013-03-31 09:22:00,51.2,39.0,29.86,West,275,12.0,13.0,63,0.00,,-RA,0.00,162.00,VWS V14.01,2013-03-31 16:22:00,
2013-03-31 09:28:00,50.8,38.3,29.86,WNW,288,13.0,15.0,62,0.00,,-RA,0.00,79.00,VWS V14.01,2013-03-31 16:28:00,
2013-03-31 09:33:00,50.3,38.2,29.86,NW,315,11.0,13.0,63,0.00,,-RA,0.00,72.00,VWS V14.01,2013-03-31 16:33:00,
2013-03-31 09:38:00,50.2,38.1,29.86,NW,310,9.0,14.0,63,0.00,,-RA,0.00,104.00,VWS V14.01,2013-03-31 16:38:00,
2013-03-31 09:43:00,50.1,38.8,29.86,NW,316,15.0,15.0,65,0.00,,-RA,0.00,77.00,VWS V14.01,2013-03-31 16:43:00,
2013-03-31 09:48:00,49.4,38.5,29.86,WNW,288,7.0,14.0,66,0.00,,-RA,0.00,77.00,VWS V14.01,2013-03-31 16:48:00,
2013-03-31 09:53:00,49.3,38.8,29.86,NW,304,8.0,14.0,67,0.00,,-RA,0.00,102.00,VWS V14.01,2013-03-31 16:53:00,
2013-03-31 09:58:00,49.7,38.8,29.86,SW,235,9.0,14.0,66,0.00,,-RA,0.00,116.00,VWS V14.01,2013-03-31 16:58:00,
2013-03-31 10:03:00,50.2,38.1,29.86,WSW,258,12.0,17.0,63,0.00,,BKN085,0.00,88.00,VWS V14.01,2013-03-31 17:03:00,
2013-03-31 10:08:00,50.3,38.6,29.87,West,267,10.0,13.0,64,0.00,,BKN085,0.00,72.00,VWS V14.01,2013-03-31 17:08:00,
2013-03-31 10:13:00,50.4,38.3,29.87,WSW,254,3.0,10.0,63,0.00,,BKN085,0.00,62.00,VWS V14.01,2013-03-31 17:13:00,
2013-03-31 10:18:00,50.5,38.8,29.88,NW,305,5.0,13.0,64,0.00,,BKN085,0.00,49.00,VWS V14.01,2013-03-31 17:18:00,
2013-03-31 10:23:00,50.6,38.9,29.88,WNW,300,7.0,14.0,64,0.00,,BKN085,0.00,40.00,VWS V14.01,2013-03-31 17:23:00,
2013-03-31 10:28:00,50.2,38.5,29.88,WNW,302,2.0,11.0,64,0.00,,BKN085,0.00,42.00,VWS V14.01,2013-03-31 17:28:00,
2013-03-31 10:33:00,50.3,38.2,29.89,WNW,284,3.0,11.0,63,0.00,,BKN085,0.00,42.00,VWS V14.01,2013-03-31 17:33:00,
2013-03-31 10:38:00,50.4,38.3,29.89,WNW,294,3.0,5.0,63,0.00,,BKN085,0.00,33.00,VWS V14.01,2013-03-31 17:38:00,
2013-03-31 10:43:00,50.3,38.6,29.90,WNW,295,5.0,6.0,64,0.00,,BKN085,0.00,39.00,VWS V14.01,2013-03-31 17:43:00,
2013-03-31 10:48:00,50.1,38.8,29.90,West,279,5.0,10.0,65,0.00,,BKN085,0.00,40.00,VWS V14.01,2013-03-31 17:48:00,
2013-03-31 10:53:00,49.9,38.6,29.90,WNW,290,6.0,11.0,65,0.00,,BKN085,0.00,44.00,VWS V14.01,2013-03-31 17:53:00,
2013-03-31 10:58:00,50.0,39.1,29.90,WNW,296,2.0,10.0,66,0.00,,BKN085,0.00,63.00,VWS V14.01,2013-03-31 17:58:00,
2013-03-31 11:03:00,50.1,39.2,29.91,West,272,1.0,5.0,66,0.00,,-RA,0.00,76.00,VWS V14.01,2013-03-31 18:03:00,
2013-03-31 11:08:00,50.3,39.4,29.91,WNW,288,1.0,3.0,66,0.00,,-RA,0.00,98.00,VWS V14.01,2013-03-31 18:08:00,
2013-03-31 11:13:00,50.5,39.6,29.91,West,277,2.0,2.0,66,0.00,,-RA,0.00,105.00,VWS V14.01,2013-03-31 18:13:00,
2013-03-31 11:18:00,51.0,40.1,29.91,WNW,292,4.0,10.0,66,0.00,,-RA,0.00,120.00,VWS V14.01,2013-03-31 18:18:00,
2013-03-31 11:23:00,51.0,41.2,29.91,WSW,254,4.0,7.0,69,0.01,,-RA,0.01,135.00,VWS V14.01,2013-03-31 18:23:00,
2013-03-31 11:28:00,50.9,40.7,29.90,NW,326,1.0,4.0,68,0.01,,-RA,0.01,153.00,VWS V14.01,2013-03-31 18:28:00,
2013-03-31 11:33:00,51.1,41.7,29.91,West,259,3.0,5.0,70,0.01,,-RA,0.01,148.00,VWS V14.01,2013-03-31 18:33:00,
2013-03-31 11:38:00,51.3,41.1,29.91,West,264,7.0,7.0,68,0.01,,-RA,0.01,142.00,VWS V14.01,2013-03-31 18:38:00,
2013-03-31 11:43:00,51.4,40.8,29.91,West,273,4.0,8.0,67,0.01,,-RA,0.01,174.00,VWS V14.01,2013-03-31 18:43:00,
2013-03-31 11:48:00,51.7,41.1,29.91,West,268,4.0,6.0,67,0.01,,-RA,0.01,158.00,VWS V14.01,2013-03-31 18:48:00,
2013-03-31 11:53:00,51.8,40.4,29.91,West,262,8.0,10.0,65,0.01,,-RA,0.01,156.00,VWS V14.01,2013-03-31 18:53:00,
2013-03-31 11:58:00,51.8,38.8,29.91,WSW,248,6.0,9.0,61,0.01,,-RA,0.01,134.00,VWS V14.01,2013-03-31 18:58:00,
2013-03-31 12:03:00,51.7,39.5,29.90,WSW,256,0.0,5.0,63,0.01,,OVC070,0.01,118.00,VWS V14.01,2013-03-31 19:03:00,
2013-03-31 12:09:00,51.7,39.1,29.89,WSW,256,0.0,2.0,62,0.01,,OVC070,0.01,128.00,VWS V14.01,2013-03-31 19:09:00,
2013-03-31 12:14:00,51.8,38.8,29.90,NE,40,1.0,3.0,61,0.01,,OVC070,0.01,132.00,VWS V14.01,2013-03-31 19:14:00,
2013-03-31 12:19:00,51.9,39.3,29.91,NE,39,0.0,2.0,62,0.01,,OVC070,0.01,93.00,VWS V14.01,2013-03-31 19:19:00,
2013-03-31 12:24:00,51.9,39.3,29.91,WSW,248,6.0,6.0,62,0.01,,OVC070,0.01,86.00,VWS V14.01,2013-03-31 19:24:00,
2013-03-31 12:29:00,51.9,39.7,29.92,WSW,237,3.0,8.0,63,0.00,,OVC070,0.01,102.00,VWS V14.01,2013-03-31 19:29:00,
2013-03-31 12:34:00,51.9,40.1,29.92,WSW,253,1.0,6.0,64,0.00,,OVC070,0.01,100.00,VWS V14.01,2013-03-31 19:34:00,
2013-03-31 12:39:00,52.0,40.2,29.92,SW,229,3.0,4.0,64,0.00,,-RA,0.01,100.00,VWS V14.01,2013-03-31 19:39:00,
2013-03-31 12:44:00,51.9,40.1,29.92,South,174,3.0,7.0,64,0.00,,-RA,0.01,97.00,VWS V14.01,2013-03-31 19:44:00,
2013-03-31 12:49:00,51.5,37.7,29.94,South,185,7.0,14.0,59,0.00,,-RA,0.01,79.00,VWS V14.01,2013-03-31 19:49:00,
2013-03-31 12:54:00,50.0,36.2,29.94,SW,215,9.0,15.0,59,0.00,,-RA,0.01,58.00,VWS V14.01,2013-03-31 19:54:00,
2013-03-31 12:59:00,49.7,36.0,29.94,SSE,168,14.0,14.0,59,0.00,,-RA,0.01,70.00,VWS V14.01,2013-03-31 19:59:00,
2013-03-31 13:04:00,49.7,35.1,29.93,ESE,112,8.0,10.0,57,0.01,,-RA,0.02,77.00,VWS V14.01,2013-03-31 20:04:00,
2013-03-31 13:09:00,49.6,36.3,29.93,SE,128,4.0,11.0,60,0.01,,-RA,0.02,77.00,VWS V14.01,2013-03-31 20:09:00,
2013-03-31 13:14:00,49.3,36.4,29.92,NE,42,6.0,9.0,61,0.01,,-RA,0.02,77.00,VWS V14.01,2013-03-31 20:14:00,
2013-03-31 13:19:00,49.0,36.2,29.91,NE,51,5.0,9.0,61,0.01,,-RA,0.02,88.00,VWS V14.01,2013-03-31 20:19:00,
2013-03-31 13:24:00,48.9,35.6,29.91,ENE,74,3.0,9.0,60,0.01,,-RA,0.02,79.00,VWS V14.01,2013-03-31 20:24:00,
2013-03-31 13:29:00,49.2,34.2,29.91,NE,53,3.0,9.0,56,0.01,,-RA,0.02,86.00,VWS V14.01,2013-03-31 20:29:00,
2013-03-31 13:34:00,49.4,36.9,29.91,NE,40,3.0,10.0,62,0.01,,-RA,0.02,88.00,VWS V14.01,2013-03-31 20:34:00,
2013-03-31 13:39:00,49.0,37.4,29.88,NE,48,12.0,12.0,64,0.01,,-RA,0.02,97.00,VWS V14.01,2013-03-31 20:39:00,
2013-03-31 13:44:00,49.1,37.1,29.87,NE,50,12.0,14.0,63,0.01,,-RA,0.02,113.00,VWS V14.01,2013-03-31 20:44:00,
2013-03-31 13:49:00,49.0,37.4,29.89,ENE,77,9.0,13.0,64,0.01,,-RA,0.02,104.00,VWS V14.01,2013-03-31 20:49:00,
2013-03-31 13:54:00,49.0,36.2,29.89,ENE,71,0.0,7.0,61,0.01,,-RA,0.02,95.00,VWS V14.01,2013-03-31 20:54:00,
2013-03-31 13:59:00,49.2,36.8,29.90,ENE,62,3.0,4.0,62,0.01,,-RA,0.02,107.00,VWS V14.01,2013-03-31 20:59:00,
2013-03-31 14:04:00,49.5,37.0,29.91,SE,142,5.0,6.0,62,0.00,,OVC075,0.02,114.00,VWS V14.01,2013-03-31 21:04:00,
2013-03-31 14:09:00,49.8,37.7,29.91,SSE,150,1.0,8.0,63,0.00,,OVC075,0.02,141.00,VWS V14.01,2013-03-31 21:09:00,
2013-03-31 14:14:00,49.9,38.2,29.90,SE,130,7.0,8.0,64,0.00,,OVC075,0.02,169.00,VWS V14.01,2013-03-31 21:14:00,
2013-03-31 14:19:00,49.7,38.0,29.90,ESE,112,3.0,10.0,64,0.00,,OVC075,0.02,229.00,VWS V14.01,2013-03-31 21:19:00,
2013-03-31 14:24:00,49.7,38.4,29.90,ESE,117,8.0,9.0,65,0.00,,OVC075,0.02,272.00,VWS V14.01,2013-03-31 21:24:00,
2013-03-31 14:29:00,49.7,38.8,29.89,East,94,5.0,10.0,66,0.00,,OVC075,0.02,271.00,VWS V14.01,2013-03-31 21:29:00,
2013-03-31 14:34:00,49.8,37.7,29.89,ESE,117,4.0,7.0,63,0.00,,OVC075,0.02,267.00,VWS V14.01,2013-03-31 21:34:00,
2013-03-31 14:39:00,50.1,38.0,29.90,SE,138,6.0,7.0,63,0.00,,OVC075,0.02,360.00,VWS V14.01,2013-03-31 21:39:00,
2013-03-31 14:45:00,50.6,39.3,29.91,SSE,148,5.0,10.0,65,0.00,,OVC075,0.02,302.00,VWS V14.01,2013-03-31 21:45:00,
2013-03-31 14:50:00,50.7,38.6,29.90,ESE,121,5.0,11.0,63,0.00,,OVC075,0.02,272.00,VWS V14.01,2013-03-31 21:50:00,
2013-03-31 14:55:00,50.9,40.0,29.90,ESE,117,7.0,9.0,66,0.00,,OVC075,0.02,234.00,VWS V14.01,2013-03-31 21:55:00,
2013-03-31 15:00:00,50.8,38.7,29.90,SE,129,6.0,11.0,63,0.00,,OVC075,0.02,209.00,VWS V14.01,2013-03-31 22:00:00,
2013-03-31 15:05:00,50.8,37.8,29.90,East,98,7.0,9.0,61,0.00,,SHRA,0.02,179.00,VWS V14.01,2013-03-31 22:05:00,
2013-03-31 15:10:00,50.9,38.0,29.89,ESE,120,7.0,10.0,61,0.00,,SHRA,0.02,176.00,VWS V14.01,2013-03-31 22:10:00,
2013-03-31 15:15:00,51.1,38.5,29.90,ESE,122,5.0,9.0,62,0.00,,SHRA,0.02,171.00,VWS V14.01,2013-03-31 22:15:00,
2013-03-31 15:20:00,51.1,38.5,29.90,SE,124,8.0,11.0,62,0.00,,SHRA,0.02,167.00,VWS V14.01,2013-03-31 22:20:00,
2013-03-31 15:25:00,50.9,37.5,29.89,East,85,7.0,10.0,60,0.00,,SHRA,0.02,165.00,VWS V14.01,2013-03-31 22:25:00,
2013-03-31 15:30:00,50.8,37.8,29.90,ESE,105,5.0,9.0,61,0.00,,SHRA,0.02,162.00,VWS V14.01,2013-03-31 22:30:00,
2013-03-31 15:35:00,50.7,38.2,29.90,East,93,10.0,10.0,62,0.00,,SHRA,0.02,167.00,VWS V14.01,2013-03-31 22:35:00,
2013-03-31 15:40:00,50.4,38.3,29.89,ESE,102,8.0,14.0,63,0.00,,SHRA,0.02,172.00,VWS V14.01,2013-03-31 22:40:00,
2013-03-31 15:45:00,49.9,38.2,29.89,ENE,58,4.0,4.0,64,0.00,,SHRA,0.02,172.00,VWS V14.01,2013-03-31 22:45:00,
2013-03-31 15:50:00,49.4,38.1,29.88,ENE,59,9.0,13.0,65,0.00,,SHRA,0.02,178.00,VWS V14.01,2013-03-31 22:50:00,
2013-03-31 15:55:00,49.2,38.0,29.88,NE,46,6.0,6.0,65,0.00,,SHRA,0.02,176.00,VWS V14.01,2013-03-31 22:55:00,
2013-03-31 16:00:00,49.1,37.9,29.89,ESE,115,7.0,8.0,65,0.00,,OVC100,0.02,171.00,VWS V14.01,2013-03-31 23:00:00,
2013-03-31 16:05:00,49.2,37.6,29.90,ESE,119,5.0,8.0,64,0.00,,OVC100,0.02,178.00,VWS V14.01,2013-03-31 23:05:00,
2013-03-31 16:10:00,49.4,37.8,29.90,ESE,121,5.0,5.0,64,0.00,,OVC100,0.02,179.00,VWS V14.01,2013-03-31 23:10:00,
2013-03-31 16:15:00,49.7,38.0,29.90,SE,128,3.0,4.0,64,0.00,,OVC100,0.02,174.00,VWS V14.01,2013-03-31 23:15:00,
2013-03-31 16:20:00,49.9,38.2,29.90,ESE,109,4.0,4.0,64,0.00,,OVC100,0.02,158.00,VWS V14.01,2013-03-31 23:20:00,
2013-03-31 16:25:00,50.1,38.4,29.90,East,85,3.0,5.0,64,0.00,,OVC100,0.02,149.00,VWS V14.01,2013-03-31 23:25:00,
2013-03-31 16:30:00,50.2,38.5,29.89,East,96,5.0,6.0,64,0.00,,OVC100,0.02,151.00,VWS V14.01,2013-03-31 23:30:00,
2013-03-31 16:35:00,50.3,38.6,29.89,ESE,113,5.0,5.0,64,0.00,,OVC100,0.02,178.00,VWS V14.01,2013-03-31 23:35:00,
2013-03-31 16:40:00,50.6,38.5,29.89,ESE,103,4.0,7.0,63,0.00,,OVC100,0.02,216.00,VWS V14.01,2013-03-31 23:40:00,
2013-03-31 16:45:00,50.8,38.3,29.89,NE,42,5.0,6.0,62,0.00,,OVC100,0.02,243.00,VWS V14.01,2013-03-31 23:45:00,
2013-03-31 16:50:00,51.0,38.5,29.90,East,92,1.0,3.0,62,0.00,,OVC100,0.02,279.00,VWS V14.01,2013-03-31 23:50:00,
2013-03-31 16:55:00,51.3,38.3,29.89,East,79,3.0,3.0,61,0.00,,OVC100,0.02,271.00,VWS V14.01,2013-03-31 23:55:00,
2013-03-31 17:00:00,51.5,38.1,29.89,ESE,114,4.0,5.0,60,0.00,,OVC120,0.02,260.00,VWS V14.01,2013-04-01 00:00:00,
2013-03-31 17:05:00,51.7,38.7,29.89,ESE,122,5.0,5.0,61,0.00,,OVC120,0.02,255.00,VWS V14.01,2013-04-01 00:05:00,
2013-03-31 17:10:00,51.9,38.5,29.89,ESE,114,3.0,5.0,60,0.00,,OVC120,0.02,236.00,VWS V14.01,2013-04-01 00:10:00,
2013-03-31 17:15:00,52.0,38.6,29.89,ESE,121,4.0,5.0,60,0.00,,OVC120,0.02,230.00,VWS V14.01,2013-04-01 00:15:00,
2013-03-31 17:20:00,52.1,38.2,29.89,East,94,5.0,5.0,59,0.00,,OVC120,0.02,214.00,VWS V14.01,2013-04-01 00:20:00,
2013-03-31 17:25:00,52.1,37.8,29.89,ESE,123,3.0,4.0,58,0.00,,OVC120,0.02,199.00,VWS V14.01,2013-04-01 00:25:00,
2013-03-31 17:30:00,52.1,37.8,29.89,ESE,104,4.0,4.0,58,0.00,,OVC120,0.02,188.00,VWS V14.01,2013-04-01 00:30:00,
2013-03-31 17:35:00,52.1,37.3,29.89,ESE,103,3.0,6.0,57,0.00,,OVC120,0.02,188.00,VWS V14.01,2013-04-01 00:35:00,
2013-03-31 17:40:00,52.2,37.9,29.89,ESE,118,1.0,3.0,58,0.00,,OVC120,0.02,153.00,VWS V14.01,2013-04-01 00:40:00,
2013-03-31 17:45:00,52.2,37.4,29.89,SE,124,1.0,2.0,57,0.00,,OVC120,0.02,134.00,VWS V14.01,2013-04-01 00:45:00,
2013-03-31 17:50:00,52.1,37.8,29.89,ESE,115,1.0,1.0,58,0.00,,OVC120,0.02,121.00,VWS V14.01,2013-04-01 00:50:00,
2013-03-31 17:55:00,52.0,38.1,29.89,ESE,115,2.0,3.0,59,0.00,,OVC120,0.02,116.00,VWS V14.01,2013-04-01 00:55:00,
2013-03-31 18:01:00,51.9,37.6,29.89,ESE,115,2.0,3.0,58,0.00,,BKN180,0.02,102.00,VWS V14.01,2013-04-01 01:01:00,
2013-03-31 18:05:00,51.9,37.6,29.89,ESE,115,0.0,1.0,58,0.00,,BKN180,0.02,90.00,VWS V14.01,2013-04-01 01:05:00,
2013-03-31 18:10:00,51.8,37.5,29.89,ESE,121,1.0,2.0,58,0.00,,BKN180,0.02,83.00,VWS V14.01,2013-04-01 01:10:00,
2013-03-31 18:16:00,51.6,37.8,29.89,ESE,121,0.0,0.0,59,0.00,,BKN180,0.02,77.00,VWS V14.01,2013-04-01 01:16:00,
2013-03-31 18:21:00,51.6,37.8,29.89,ESE,121,2.0,2.0,59,0.00,,BKN180,0.02,74.00,VWS V14.01,2013-04-01 01:21:00,
2013-03-31 18:26:00,51.5,38.1,29.89,SSE,153,2.0,2.0,60,0.00,,BKN180,0.02,65.00,VWS V14.01,2013-04-01 01:26:00,
2013-03-31 18:31:00,51.1,38.5,29.90,SSE,153,2.0,2.0,62,0.00,,BKN180,0.02,62.00,VWS V14.01,2013-04-01 01:31:00,
2013-03-31 18:36:00,50.8,38.7,29.90,SSE,153,1.0,1.0,63,0.00,,BKN180,0.02,49.00,VWS V14.01,2013-04-01 01:36:00,
2013-03-31 18:41:00,50.6,38.5,29.90,SSE,153,0.0,1.0,63,0.00,,BKN180,0.02,39.00,VWS V14.01,2013-04-01 01:41:00,
2013-03-31 18:46:00,50.5,38.8,29.90,SSE,153,0.0,2.0,64,0.00,,BKN180,0.02,33.00,VWS V14.01,2013-04-01 01:46:00,
2013-03-31 18:51:00,50.4,39.1,29.90,SSE,153,0.0,1.0,65,0.00,,BKN180,0.02,26.00,VWS V14.01,2013-04-01 01:51:00,
2013-03-31 18:56:00,50.4,39.1,29.90,SSE,153,0.0,1.0,65,0.00,,BKN180,0.02,16.00,VWS V14.01,2013-04-01 01:56:00,
2013-03-31 19:01:00,50.3,39.0,29.89,SSE,153,0.0,0.0,65,0.00,,CLR,0.02,12.00,VWS V14.01,2013-04-01 02:01:00,
2013-03-31 19:06:00,49.8,38.9,29.89,SSE,153,0.0,1.0,66,0.00,,CLR,0.02,7.00,VWS V14.01,2013-04-01 02:06:00,
2013-03-31 19:11:00,49.6,38.7,29.90,SSE,153,0.0,0.0,66,0.00,,CLR,0.02,5.00,VWS V14.01,2013-04-01 02:11:00,
2013-03-31 19:16:00,49.5,39.4,29.90,SSE,153,0.0,0.0,68,0.00,,CLR,0.02,0.00,VWS V14.01,2013-04-01 02:16:00,
2013-03-31 19:21:00,49.3,39.6,29.90,SSE,153,0.0,0.0,69,0.00,,CLR,0.02,0.00,VWS V14.01,2013-04-01 02:21:00,
2013-03-31 19:26:00,49.1,39.0,29.90,SSE,153,0.0,0.0,68,0.00,,CLR,0.02,0.00,VWS V14.01,2013-04-01 02:26:00,
2013-03-31 19:32:00,48.9,39.6,29.90,SSE,153,0.0,0.0,70,0.00,,CLR,0.02,0.00,VWS V14.01,2013-04-01 02:32:00,
2013-03-31 19:37:00,48.6,39.3,29.90,SSE,153,0.0,0.0,70,0.00,,CLR,0.02,0.00,VWS V14.01,2013-04-01 02:37:00,
2013-03-31 19:42:00,48.4,39.1,29.90,SSE,153,0.0,0.0,70,0.00,,CLR,0.02,0.00,VWS V14.01,2013-04-01 02:42:00,
2013-03-31 19:47:00,48.1,38.8,29.90,SSE,153,0.0,0.0,70,0.00,,CLR,0.02,0.00,VWS V14.01,2013-04-01 02:47:00,
2013-03-31 19:52:00,47.8,38.5,29.90,SSE,153,0.0,1.0,70,0.00,,CLR,0.02,0.00,VWS V14.01,2013-04-01 02:52:00,
2013-03-31 19:57:00,47.6,38.3,29.91,SSE,153,0.0,0.0,70,0.00,,CLR,0.02,0.00,VWS V14.01,2013-04-01 02:57:00,
2013-03-31 20:02:00,47.3,37.7,29.91,SSE,153,0.0,2.0,69,0.00,,CLR,0.02,0.00,VWS V14.01,2013-04-01 03:02:00,
2013-03-31 20:07:00,47.2,37.9,29.91,SSE,153,0.0,0.0,70,0.00,,CLR,0.02,0.00,VWS V14.01,2013-04-01 03:07:00,
2013-03-31 20:12:00,47.0,37.7,29.91,SSE,153,0.0,0.0,70,0.00,,CLR,0.02,0.00,VWS V14.01,2013-04-01 03:12:00,
2013-03-31 20:17:00,46.8,37.9,29.91,SSE,153,0.0,0.0,71,0.00,,CLR,0.02,0.00,VWS V14.01,2013-04-01 03:17:00,
2013-03-31 20:22:00,46.4,37.5,29.91,SSE,153,0.0,0.0,71,0.00,,CLR,0.02,0.00,VWS V14.01,2013-04-01 03:22:00,
2013-03-31 20:27:00,46.2,37.7,29.91,SSE,153,0.0,0.0,72,0.00,,CLR,0.02,0.00,VWS V14.01,2013-04-01 03:27:00,
2013-03-31 20:32:00,45.7,37.2,29.91,SSE,153,1.0,1.0,72,0.00,,CLR,0.02,0.00,VWS V14.01,2013-04-01 03:32:00,
2013-03-31 20:37:00,44.9,36.8,29.91,SSE,153,0.0,1.0,73,0.00,,CLR,0.02,0.00,VWS V14.01,2013-04-01 03:37:00,
2013-03-31 20:42:00,44.4,37.0,29.92,NE,55,1.0,3.0,75,0.00,,CLR,0.02,0.00,VWS V14.01,2013-04-01 03:42:00,
2013-03-31 20:47:00,43.8,36.4,29.92,NE,55,0.0,2.0,75,0.00,,CLR,0.02,0.00,VWS V14.01,2013-04-01 03:47:00,
2013-03-31 20:52:00,43.6,36.5,29.92,NE,55,0.0,1.0,76,0.00,,CLR,0.02,0.00,VWS V14.01,2013-04-01 03:52:00,
2013-03-31 20:57:00,43.6,36.5,29.92,NE,55,0.0,0.0,76,0.00,,CLR,0.02,0.00,VWS V14.01,2013-04-01 03:57:00,
2013-03-31 21:00:00,43.6,36.5,29.92,NE,55,0.0,0.0,76,0.00,,CLR,0.02,0.00,VWS V14.01,2013-04-01 04:00:00,
2013-03-31 21:05:00,43.6,36.2,29.92,NE,55,0.0,0.0,75,0.00,,FEW110,0.02,0.00,VWS V14.01,2013-04-01 04:05:00,
2013-03-31 21:10:00,43.2,36.2,29.92,NE,55,1.0,2.0,76,0.00,,FEW110,0.02,0.00,VWS V14.01,2013-04-01 04:10:00,
2013-03-31 21:12:00,43.1,36.1,29.92,NE,55,1.0,1.0,76,0.00,,FEW110,0.02,0.00,VWS V14.01,2013-04-01 04:12:00,
2013-03-31 21:17:00,42.7,35.7,29.92,NE,54,0.0,1.0,76,0.00,,FEW110,0.02,0.00,VWS V14.01,2013-04-01 04:17:00,
2013-03-31 21:22:00,42.6,35.6,29.92,NE,54,1.0,2.0,76,0.00,,FEW110,0.02,0.00,VWS V14.01,2013-04-01 04:22:00,
2013-03-31 21:27:00,42.5,35.8,29.92,North,360,2.0,3.0,77,0.00,,FEW110,0.02,0.00,VWS V14.01,2013-04-01 04:27:00,
2013-03-31 21:32:00,42.0,35.3,29.93,NNW,337,3.0,4.0,77,0.00,,FEW110,0.02,0.00,VWS V14.01,2013-04-01 04:32:00,
2013-03-31 21:37:00,41.3,34.7,29.93,NNW,336,1.0,3.0,77,0.00,,FEW110,0.02,0.00,VWS V14.01,2013-04-01 04:37:00,
2013-03-31 21:43:00,41.0,34.7,29.93,NNW,336,2.0,3.0,78,0.00,,FEW110,0.02,0.00,VWS V14.01,2013-04-01 04:43:00,
2013-03-31 21:47:00,40.7,34.4,29.93,NNW,336,1.0,2.0,78,0.00,,FEW110,0.02,0.00,VWS V14.01,2013-04-01 04:47:00,
2013-03-31 21:53:00,40.4,34.4,29.93,NNW,336,1.0,2.0,79,0.00,,FEW110,0.02,0.00,VWS V14.01,2013-04-01 04:53:00,
2013-03-31 21:58:00,40.2,34.2,29.93,NNW,336,0.0,2.0,79,0.00,,FEW110,0.02,0.00,VWS V14.01,2013-04-01 04:58:00,
2013-03-31 22:03:00,40.0,34.0,29.93,NNW,336,1.0,2.0,79,0.00,,CLR,0.02,0.00,VWS V14.01,2013-04-01 05:03:00,
2013-03-31 22:08:00,39.7,34.0,29.94,NNW,336,0.0,1.0,80,0.00,,CLR,0.02,0.00,VWS V14.01,2013-04-01 05:08:00,
2013-03-31 22:13:00,39.6,33.6,29.94,NNW,336,0.0,0.0,79,0.00,,CLR,0.02,0.00,VWS V14.01,2013-04-01 05:13:00,
2013-03-31 22:18:00,39.4,33.8,29.94,NNW,336,0.0,0.0,80,0.00,,CLR,0.02,0.00,VWS V14.01,2013-04-01 05:18:00,
2013-03-31 22:23:00,39.1,33.5,29.94,NNW,336,0.0,2.0,80,0.00,,CLR,0.02,0.00,VWS V14.01,2013-04-01 05:23:00,
2013-03-31 22:28:00,38.9,33.6,29.94,NNW,336,0.0,1.0,81,0.00,,CLR,0.02,0.00,VWS V14.01,2013-04-01 05:28:00,
2013-03-31 22:33:00,38.9,33.9,29.94,NNW,336,0.0,0.0,82,0.00,,CLR,0.02,0.00,VWS V14.01,2013-04-01 05:33:00,
2013-03-31 22:38:00,38.7,33.7,29.94,NNW,336,0.0,0.0,82,0.00,,CLR,0.02,0.00,VWS V14.01,2013-04-01 05:38:00,
2013-03-31 22:43:00,38.5,33.5,29.94,NNW,336,0.0,1.0,82,0.00,,CLR,0.02,0.00,VWS V14.01,2013-04-01 05:43:00,
2013-03-31 22:48:00,38.4,33.1,29.94,NNW,336,0.0,0.0,81,0.00,,CLR,0.02,0.00,VWS V14.01,2013-04-01 05:48:00,
2013-03-31 22:53:00,38.3,33.0,29.94,NNW,336,0.0,1.0,81,0.00,,CLR,0.02,0.00,VWS V14.01,2013-04-01 05:53:00,
2013-03-31 22:58:00,38.0,32.7,29.95,NNW,336,1.0,1.0,81,0.00,,CLR,0.02,0.00,VWS V14.01,2013-04-01 05:58:00,
2013-03-31 23:03:00,37.8,32.8,29.95,SE,137,1.0,3.0,82,0.00,,SCT060,0.02,0.00,VWS V14.01,2013-04-01 06:03:00,
2013-03-31 23:08:00,37.6,32.9,29.95,SE,129,1.0,3.0,83,0.00,,SCT060,0.02,0.00,VWS V14.01,2013-04-01 06:08:00,
2013-03-31 23:13:00,37.4,32.7,29.95,SE,129,0.0,1.0,83,0.00,,SCT060,0.02,0.00,VWS V14.01,2013-04-01 06:13:00,
2013-03-31 23:18:00,37.4,33.0,29.95,SE,129,0.0,0.0,84,0.00,,SCT060,0.02,0.00,VWS V14.01,2013-04-01 06:18:00,
2013-03-31 23:23:00,37.4,33.0,29.95,SE,129,0.0,0.0,84,0.00,,SCT060,0.02,0.00,VWS V14.01,2013-04-01 06:23:00,
2013-03-31 23:28:00,37.3,33.2,29.95,SE,129,0.0,1.0,85,0.00,,SCT060,0.02,0.00,VWS V14.01,2013-04-01 06:28:00,
2013-03-31 23:33:00,37.3,33.2,29.95,SE,129,0.0,1.0,85,0.00,,SCT060,0.02,0.00,VWS V14.01,2013-04-01 06:33:00,
2013-03-31 23:38:00,37.4,33.6,29.95,SE,129,0.0,0.0,86,0.00,,SCT060,0.02,0.00,VWS V14.01,2013-04-01 06:38:00,
2013-03-31 23:43:00,37.4,33.6,29.95,SE,129,0.0,1.0,86,0.00,,SCT060,0.02,0.00,VWS V14.01,2013-04-01 06:43:00,
2013-03-31 23:48:00,37.3,33.5,29.95,SE,129,0.0,0.0,86,0.00,,SCT060,0.02,0.00,VWS V14.01,2013-04-01 06:48:00,
2013-03-31 23:53:00,37.1,33.0,29.95,SE,129,0.0,1.0,85,0.00,,SCT060,0.02,0.00,VWS V14.01,2013-04-01 06:53:00,
2013-03-31 23:58:00,36.8,32.7,29.95,SE,129,0.0,0.0,85,0.00,,SCT060,0.02,0.00,VWS V14.01,2013-04-01 06:58:00,